Погода в Оболенском

Россия / Калужская область     55°03′08″N   36°33′55″E
темп.,
°C
ветер,
м/с
пор.,
м/с
влажн.,
%
обл.,
%
осадки,
мм/ч
давл.,
гПа
погр.,
м
5 августа, чт
чт500:00+14ююв118494 0.1 101713
03:00+14ююв118975 0.6 101714
06:00+13ююв1290100 0.1 101729
09:00+18юв3571100 0.1 1017348
12:00+22ююз5652100 0.3 10161755
15:00+15вюв2596100 2.3 1016209
18:00+17вюв2589100 0.0 1014249
21:00+14в24975 0.0 101382
6 августа, пт
пт600:00+14вюв249673 0.4 101386
03:00+14юв259668 1.0 1012117
06:00+14ююв2798100 0.3 1011191
09:00+18ю3792100 1.8 1011418
12:00+19ю3887100 0.4 1011640
15:00+18в2696100 1.3 1010235
18:00+21всв3782100 0.0 1009472
21:00+18в51386100 0.1 1008384
7 августа, сб
сб700:00+16св3797100 0.9 1008248
03:00+15в2598100 0.9 1007112
06:00+16юв2296100 0.0 100760
09:00+21ю238393 0.1 1008280
12:00+24ю486676 0.0 10081059
15:00+28ю6946100 0.0 10072000
18:00+25ю4959100 0.0 1007536
21:00+19зюз2292100 0.1 100919
8 августа, вс
вс800:00+19з2691100 0.0 1010199
03:00+16з2595100 0.0 1012114
06:00+14зюз2691100 0.0 1013156
09:00+18зюз3571100 0.0 1014490
12:00+22зюз3460100 0.0 10151132
15:00+24зюз244851 0.0 10151791
18:00+23сз345977 0.0 1016583
21:00+18сз01740 0.0 101711
9 августа, пн
пн900:00+16зюз11830 0.0 101811
03:00+14зюз11894 0.0 101911
06:00+14з118335 0.0 101911
09:00+21юз11588 0.0 1019362
12:00+26зюз114319 0.0 10191388
15:00+27з11385 0.0 10181605
18:00+25сз12505 0.0 1017271
21:00+19в1163100 0.0 101811